This is the latest recevied weather packets stored in our database for station/object OK3MS-5. If no packets are shown the sender has not sent any weather packets the latest 1 day(s).
| Time | Temp. | Humidity | Pressure | Rain* | Wind** | Luminosity | Snow |
|---|---|---|---|---|---|---|---|
| 1777964703 | 17.22° C | 53% | 1006.7 hPa | 0 mm | 0 m/s | 353 W/m² | - |
| 1777964404 | 16.67° C | 54% | 1006.9 hPa | 0 mm | 0 m/s | 320 W/m² | - |
| 1777964105 | 16.67° C | 53% | 1007 hPa | 0 mm | 0 m/s | 328 W/m² | - |
| 1777963803 | 16.67° C | 56% | 1007 hPa | 0 mm | 0.45 m/s, 54° | 315 W/m² | - |
| 1777963504 | 17.22° C | 55% | 1007 hPa | 0 mm | 0 m/s | 301 W/m² | - |
| 1777963205 | 16.67° C | 54% | 1007 hPa | 0 mm | 0 m/s | 283 W/m² | - |
| 1777962902 | 16.67° C | 54% | 1007.1 hPa | 0 mm | 0 m/s | 272 W/m² | - |
| 1777962603 | 16.67° C | 54% | 1007.1 hPa | 0 mm | 0 m/s | 247 W/m² | - |
| 1777962303 | 16.11° C | 54% | 1007.2 hPa | 0 mm | 0 m/s | 128 W/m² | - |
| 1777962003 | 16.67° C | 55% | 1007.2 hPa | 0 mm | 0 m/s | 70 W/m² | - |
| 1777961706 | 16.67° C | 54% | 1007.3 hPa | 0 mm | 0 m/s | 67 W/m² | - |
| 1777961404 | 16.11° C | 56% | 1007.3 hPa | 0 mm | 0 m/s | 63 W/m² | - |
| 1777961103 | 16.11° C | 57% | 1007.4 hPa | 0 mm | 0 m/s | 62 W/m² | - |
| 1777960804 | 16.11° C | 58% | 1007.3 hPa | 0 mm | 0 m/s | 63 W/m² | - |
| 1777960502 | 16.11° C | 58% | 1007.5 hPa | 0 mm | 0 m/s | 63 W/m² | - |
| 1777960202 | 16.11° C | 57% | 1007.3 hPa | 0 mm | 0 m/s | 59 W/m² | - |
| 1777959906 | 16.67° C | 55% | 1007.4 hPa | 0 mm | 0 m/s | 56 W/m² | - |
| 1777959604 | 15.56° C | 58% | 1007.5 hPa | 0 mm | 0 m/s | 56 W/m² | - |
| 1777959303 | 15° C | 59% | 1007.7 hPa | 0 mm | 0 m/s | 59 W/m² | - |
| 1777959003 | 13.89° C | 62% | 1007.9 hPa | 0 mm | 0 m/s | 99 W/m² | - |
| 1777958705 | 13.33° C | 69% | 1008.1 hPa | 0 mm | 0 m/s | 95 W/m² | - |
| 1777958402 | 12.22° C | 70% | 1008.1 hPa | 0 mm | 0 m/s | 85 W/m² | - |
| 1777958103 | 11.67° C | 74% | 1008.3 hPa | 0 mm | 0 m/s | 75 W/m² | - |
| 1777957803 | 11.67° C | 75% | 1008.5 hPa | 0 mm | 0 m/s | 52 W/m² | - |
| 1777957505 | 11.67° C | 75% | 1008.6 hPa | 0 mm | 0 m/s | 44 W/m² | - |
* Rain latest hour (hover to see other rain measurements)
** Current wind speed in m/s (hover to see current wind gust speed)